Location: Nashville
(36.1660°N, 86.7840°W)
Time: 21:26:53
(UTC-06:00)

BlueWalker 3 - Visible Passes

Search period start: 30 November 2023 00:00
Search period end: 10 December 2023 00:00
Orbit: 489 x 504 km, 53.2° (Epoch: 29 November)

Date Brightness Start Highest point End Pass type
(mag) Time Alt. Az. Time Alt. Az. Time Alt. Az.
30 Nov 4.5 05:04:02 10° N 05:05:32 12° NNE 05:07:02 10° NE visible
01 Dec 4.5 04:42:23 11° NNE 04:42:56 12° NNE 04:44:23 10° NE visible
02 Dec 4.7 04:20:50 11° NNE 04:20:50 11° NNE 04:21:44 10° NE visible
02 Dec 2.4 05:55:37 10° NW 05:59:23 56° NE 06:03:07 10° ESE visible
03 Dec 2.4 05:33:53 16° NW 05:36:45 55° NE 05:40:29 10° ESE visible
04 Dec 2.4 05:12:26 29° NNW 05:14:06 54° NE 05:17:49 10° ESE visible
05 Dec 2.3 04:51:02 50° NNE 04:51:25 53° NE 04:55:09 10° ESE visible
06 Dec 3.2 04:29:41 40° E 04:29:41 40° E 04:32:27 10° ESE visible
06 Dec 3.9 06:04:29 10° W 06:06:44 15° SW 06:08:59 10° SSW visible
07 Dec 4.4 04:08:23 20° ESE 04:08:23 20° ESE 04:09:45 10° ESE visible
07 Dec 3.8 05:42:58 14° WSW 05:44:02 15° SW 05:46:19 10° SSW visible
08 Dec 3.9 05:21:44 15° SW 05:21:44 15° SW 05:23:39 10° SSW visible
09 Dec 4.4 05:00:32 12° SSW 05:00:32 12° SSW 05:00:57 10° SSW visible
